Regional Weather Roundup
Issued by NWS

Home | Current Version | Previous Version | Text Only | Print | Product List | Glossary On
Versions: 1 2 3 4 5 6 7 8 9 10 11 12 13 14 15 16 17 18 19 20 21 22 23 24 25 26 27 28 29 30 31 32 33 34 35 36 37 38 39 40 41 42 43 44 45 46 47 48 49 50
000
ASUS43 KTOP 240208
RWRKS

WEATHER ROUNDUP FOR KANSAS
NATIONAL WEATHER SERVICE GOODLAND KS
900 PM CDT SUN APR 23 2017

NOTE:  "FAIR" INDICATES FEW OR NO CLOUDS BELOW 12,000 FEET WITH NO
SIGNIFICANT WEATHER AND/OR OBSTRUCTIONS TO VISIBILITY.

KSZ001>006-013>018-027>032-041>047-240300-
NORTHWEST KANSAS

CITY           SKY/WX    TMP DP  RH WIND       PRES   REMARKS
GOODLAND       CLOUDY    59  39  47 S24       29.74F
HAYS           CLOUDY    57  38  48 SE13      29.88F
HILL CITY      PTCLDY    60  34  37 SE13      29.84F
RUSSELL        CLOUDY    57  36  45 S15       29.88F
$$

KSZ061>065-074>080-084>089-240300-
SOUTHWEST KANSAS

CITY           SKY/WX    TMP DP  RH WIND       PRES   REMARKS
DODGE CITY     CLOUDY    59  32  36 S18       29.88F
ELKHART          N/A     61  37  41 SE17        N/A
GARDEN CITY    CLEAR     59  31  34 S16       29.83F
GREAT BEND     CLOUDY    56  37  49 S15       29.91
PRATT          CLOUDY    55  33  41 S16       29.94S
$$

KSZ066>073-081>083-090>101-240300-
SOUTHEAST KANSAS

CITY           SKY/WX    TMP DP  RH WIND       PRES   REMARKS
CHANUTE        CLEAR     53  43  68 SE6       29.99F
COFFEYVILLE    CLEAR     57  43  59 S3        30.00F
HUTCHINSON     CLOUDY    56  39  53 SE13      29.95F
MEDICINE LODGE   N/A     57  38  48 SE7       29.95F
PARSONS        CLEAR     51  45  79 CALM      30.00F
WICHITA INTL   CLOUDY    55  42  61 S8        29.98S
WICHITA JABRA  CLOUDY    55  38  52 S8        29.98S
WICHITA MCCONL PTCLDY    57  37  46 S7        29.98S
WINFIELD       CLEAR     58  39  49 SE5       30.00F
$$

KSZ007>012-019>026-033>040-048>060-102>105-240300-
NORTHEAST KANSAS

CITY           SKY/WX    TMP DP  RH WIND       PRES   REMARKS
CONCORDIA      CLEAR     58  36  43 S15       29.91F
EMPORIA        PTCLDY    55  42  61 S6        29.99S
LAWRENCE       PTCLDY    59  38  45 S7        29.98F
MANHATTAN      PTCLDY    55  39  54 SW3       29.96S
MARYSVILLE     CLOUDY    57  34  41 S5        29.94S
OLATHE IND     CLOUDY    56  36  47 SE6       30.00S
OLATHE EXE     PTCLDY    57  40  52 SE5       29.99F
SALINA         PTCLDY    58  40  51 SE12      29.94F
TOPEKA BILLARD MOCLDY    61  38  42 S5        29.98S
TOPEKA FORBES  PTCLDY    57  39  51 S7        29.98S
$$




USA.gov is the U.S. government's official web portal to all federal, state and local government web resources and services.